Year,Month,Day,Hour,Minute,Value (Times are PST for temperature in C)
2016,07,24,00,00,14.30
2016,07,24,00,01,14.30
2016,07,24,00,02,14.30
2016,07,24,00,03,14.20
2016,07,24,00,04,14.20
2016,07,24,00,05,14.20
2016,07,24,00,06,14.20
2016,07,24,00,07,14.20
2016,07,24,00,08,14.20
2016,07,24,00,09,14.20
2016,07,24,00,10,14.20
2016,07,24,00,11,14.20
2016,07,24,00,12,14.20
2016,07,24,00,13,14.10
2016,07,24,00,14,14.10
2016,07,24,00,15,14.10
2016,07,24,00,16,14.10
2016,07,24,00,17,14.10
2016,07,24,00,18,14.10
2016,07,24,00,19,14.10
2016,07,24,00,20,14.00
2016,07,24,00,21,14.00
2016,07,24,00,22,14.00
2016,07,24,00,23,14.00
2016,07,24,00,24,13.90
2016,07,24,00,25,13.90
2016,07,24,00,26,13.90
2016,07,24,00,27,13.90
2016,07,24,00,28,13.90
2016,07,24,00,29,13.90
2016,07,24,00,30,13.90
2016,07,24,00,31,13.90
2016,07,24,00,32,13.90
2016,07,24,00,33,13.90
2016,07,24,00,34,13.90
2016,07,24,00,35,13.80
2016,07,24,00,36,13.80
2016,07,24,00,37,13.80
2016,07,24,00,38,13.80
2016,07,24,00,39,13.80
2016,07,24,00,40,13.80
2016,07,24,00,41,13.80
2016,07,24,00,42,13.80
2016,07,24,00,43,13.80
2016,07,24,00,44,13.80
2016,07,24,00,45,13.80
2016,07,24,00,46,13.80
2016,07,24,00,47,13.80
2016,07,24,00,48,13.80
2016,07,24,00,49,13.80
2016,07,24,00,50,13.80
2016,07,24,00,51,13.80
2016,07,24,00,52,13.80
2016,07,24,00,53,13.80
2016,07,24,00,54,13.80
2016,07,24,00,55,13.80
2016,07,24,00,56,13.80
2016,07,24,00,57,13.80
2016,07,24,00,58,13.80
2016,07,24,00,59,13.70
2016,07,24,01,00,13.70
2016,07,24,01,01,13.70
2016,07,24,01,02,13.70
2016,07,24,01,03,13.70
2016,07,24,01,04,13.70
2016,07,24,01,05,13.70
2016,07,24,01,06,13.70
2016,07,24,01,07,13.70
2016,07,24,01,08,13.70
2016,07,24,01,09,13.70
2016,07,24,01,10,13.70
2016,07,24,01,11,13.70
2016,07,24,01,12,13.70
2016,07,24,01,13,13.70
2016,07,24,01,14,13.70
2016,07,24,01,15,13.70
2016,07,24,01,16,13.70
2016,07,24,01,17,13.70
2016,07,24,01,18,13.70
2016,07,24,01,19,13.70
2016,07,24,01,20,13.70
2016,07,24,01,21,13.60
2016,07,24,01,22,13.60
2016,07,24,01,23,13.60
2016,07,24,01,24,13.60
2016,07,24,01,25,13.60
2016,07,24,01,26,13.60
2016,07,24,01,27,13.60
2016,07,24,01,28,13.60
2016,07,24,01,29,13.60
2016,07,24,01,30,13.60
2016,07,24,01,31,13.60
2016,07,24,01,32,13.60
2016,07,24,01,33,13.60
2016,07,24,01,34,13.50
2016,07,24,01,35,13.50
2016,07,24,01,36,13.50
2016,07,24,01,37,13.50
2016,07,24,01,38,13.50
2016,07,24,01,39,13.50
2016,07,24,01,40,13.50
2016,07,24,01,41,13.40
2016,07,24,01,42,13.40
2016,07,24,01,43,13.40
2016,07,24,01,44,13.40
2016,07,24,01,45,13.40
2016,07,24,01,46,13.40
2016,07,24,01,47,13.40
2016,07,24,01,48,13.40
2016,07,24,01,49,13.40
2016,07,24,01,50,13.40
2016,07,24,01,51,13.30
2016,07,24,01,52,13.30
2016,07,24,01,53,13.30
2016,07,24,01,54,13.30
2016,07,24,01,55,13.30
2016,07,24,01,56,13.30
2016,07,24,01,57,13.30
2016,07,24,01,58,13.30
2016,07,24,01,59,13.30
2016,07,24,02,00,13.30
2016,07,24,02,01,13.30
2016,07,24,02,02,13.30
2016,07,24,02,03,13.30
2016,07,24,02,04,13.30
2016,07,24,02,05,13.30
2016,07,24,02,06,13.30
2016,07,24,02,07,13.30
2016,07,24,02,08,13.30
2016,07,24,02,09,13.30
2016,07,24,02,10,13.30
2016,07,24,02,11,13.30
2016,07,24,02,12,13.30
2016,07,24,02,13,13.30
2016,07,24,02,14,13.30
2016,07,24,02,15,13.30
2016,07,24,02,16,13.30
2016,07,24,02,17,13.30
2016,07,24,02,18,13.30
2016,07,24,02,19,13.20
2016,07,24,02,20,13.20
2016,07,24,02,21,13.20
2016,07,24,02,22,13.20
2016,07,24,02,23,13.20
2016,07,24,02,24,13.20
2016,07,24,02,25,13.20
2016,07,24,02,26,13.20
2016,07,24,02,27,13.20
2016,07,24,02,28,13.20
2016,07,24,02,29,13.20
2016,07,24,02,30,13.20
2016,07,24,02,31,13.20
2016,07,24,02,32,13.20
2016,07,24,02,33,13.20
2016,07,24,02,34,13.10
2016,07,24,02,35,13.10
2016,07,24,02,36,13.10
2016,07,24,02,37,13.10
2016,07,24,02,38,13.10
2016,07,24,02,39,13.10
2016,07,24,02,40,13.10
2016,07,24,02,41,13.10
2016,07,24,02,42,13.10
2016,07,24,02,43,13.10
2016,07,24,02,44,13.10
2016,07,24,02,45,13.10
2016,07,24,02,46,13.10
2016,07,24,02,47,13.10
2016,07,24,02,48,13.10
2016,07,24,02,49,13.10
2016,07,24,02,50,13.10
2016,07,24,02,51,13.10
2016,07,24,02,52,13.10
2016,07,24,02,53,13.10
2016,07,24,02,54,13.10
2016,07,24,02,55,13.10
2016,07,24,02,56,13.10
2016,07,24,02,57,13.00
2016,07,24,02,58,13.00
2016,07,24,02,59,13.00
2016,07,24,03,00,13.00
2016,07,24,03,01,13.00
2016,07,24,03,02,12.90
2016,07,24,03,03,12.90
2016,07,24,03,04,12.90
2016,07,24,03,05,12.90
2016,07,24,03,06,12.90
2016,07,24,03,07,12.90
2016,07,24,03,08,12.90
2016,07,24,03,09,12.90
2016,07,24,03,10,12.90
2016,07,24,03,11,12.80
2016,07,24,03,12,12.80
2016,07,24,03,13,12.80
2016,07,24,03,14,12.80
2016,07,24,03,15,12.80
2016,07,24,03,16,12.80
2016,07,24,03,17,12.90
2016,07,24,03,18,12.90
2016,07,24,03,19,12.90
2016,07,24,03,20,12.90
2016,07,24,03,21,12.90
2016,07,24,03,22,12.90
2016,07,24,03,23,12.90
2016,07,24,03,24,12.90
2016,07,24,03,25,12.90
2016,07,24,03,26,12.90
2016,07,24,03,27,12.90
2016,07,24,03,28,12.90
2016,07,24,03,29,12.90
2016,07,24,03,30,12.90
2016,07,24,03,31,12.90
2016,07,24,03,32,12.90
2016,07,24,03,33,12.90
2016,07,24,03,34,12.90
2016,07,24,03,35,12.90
2016,07,24,03,36,12.90
2016,07,24,03,37,12.90
2016,07,24,03,38,12.90
2016,07,24,03,39,12.90
2016,07,24,03,40,12.90
2016,07,24,03,41,12.90
2016,07,24,03,42,12.90
2016,07,24,03,43,12.90
2016,07,24,03,44,12.90
2016,07,24,03,45,12.80
2016,07,24,03,46,12.80
2016,07,24,03,47,12.80
2016,07,24,03,48,12.80
2016,07,24,03,49,12.80
2016,07,24,03,50,12.80
2016,07,24,03,51,12.80
2016,07,24,03,52,12.80
2016,07,24,03,53,12.80
2016,07,24,03,54,12.70
2016,07,24,03,55,12.70
2016,07,24,03,56,12.70
2016,07,24,03,57,12.70
2016,07,24,03,58,12.70
2016,07,24,03,59,12.70
2016,07,24,04,00,12.70
2016,07,24,04,01,12.70
2016,07,24,04,02,12.60
2016,07,24,04,03,12.60
2016,07,24,04,04,12.60
2016,07,24,04,05,12.60
2016,07,24,04,06,12.60
2016,07,24,04,07,12.60
2016,07,24,04,08,12.60
2016,07,24,04,09,12.60
2016,07,24,04,10,12.60
2016,07,24,04,11,12.60
2016,07,24,04,12,12.60
2016,07,24,04,13,12.50
2016,07,24,04,14,12.50
2016,07,24,04,15,12.50
2016,07,24,04,16,12.50
2016,07,24,04,17,12.50
2016,07,24,04,18,12.40
2016,07,24,04,19,12.40
2016,07,24,04,20,12.40
2016,07,24,04,21,12.40
2016,07,24,04,22,12.40
2016,07,24,04,23,12.40
2016,07,24,04,24,12.50
2016,07,24,04,25,12.50
2016,07,24,04,26,12.50
2016,07,24,04,27,12.50
2016,07,24,04,28,12.60
2016,07,24,04,29,12.60
2016,07,24,04,30,12.60
2016,07,24,04,31,12.60
2016,07,24,04,32,12.60
2016,07,24,04,33,12.60
2016,07,24,04,34,12.60
2016,07,24,04,35,12.60
2016,07,24,04,36,12.60
2016,07,24,04,37,12.60
2016,07,24,04,38,12.60
2016,07,24,04,39,12.50
2016,07,24,04,40,12.50
2016,07,24,04,41,12.50
2016,07,24,04,42,12.50
2016,07,24,04,43,12.50
2016,07,24,04,44,12.40
2016,07,24,04,45,12.40
2016,07,24,04,46,12.40
2016,07,24,04,47,12.40
2016,07,24,04,48,12.40
2016,07,24,04,49,12.40
2016,07,24,04,50,12.40
2016,07,24,04,51,12.40
2016,07,24,04,52,12.40
2016,07,24,04,53,12.40
2016,07,24,04,54,12.30
2016,07,24,04,55,12.30
2016,07,24,04,56,12.30
2016,07,24,04,57,12.30
2016,07,24,04,58,12.30
2016,07,24,04,59,12.30
2016,07,24,05,00,12.30
2016,07,24,05,01,12.30
2016,07,24,05,02,12.30
2016,07,24,05,03,12.30
2016,07,24,05,04,12.30
2016,07,24,05,05,12.30
2016,07,24,05,06,12.30
2016,07,24,05,07,12.30
2016,07,24,05,08,12.30
2016,07,24,05,09,12.20
2016,07,24,05,10,12.20
2016,07,24,05,11,12.20
2016,07,24,05,12,12.20
2016,07,24,05,13,12.20
2016,07,24,05,14,12.20
2016,07,24,05,15,12.20
2016,07,24,05,16,12.20
2016,07,24,05,17,12.20
2016,07,24,05,18,12.20
2016,07,24,05,19,12.20
2016,07,24,05,20,12.20
2016,07,24,05,21,12.20
2016,07,24,05,22,12.20
2016,07,24,05,23,12.10
2016,07,24,05,24,12.10
2016,07,24,05,25,12.10
2016,07,24,05,26,12.10
2016,07,24,05,27,12.10
2016,07,24,05,28,12.10
2016,07,24,05,29,12.10
2016,07,24,05,30,12.10
2016,07,24,05,31,12.10
2016,07,24,05,32,12.10
2016,07,24,05,33,12.10
2016,07,24,05,34,12.10
2016,07,24,05,35,12.10
2016,07,24,05,36,12.10
2016,07,24,05,37,12.10
2016,07,24,05,38,12.10
2016,07,24,05,39,12.10
2016,07,24,05,40,12.10
2016,07,24,05,41,12.10
2016,07,24,05,42,12.10
2016,07,24,05,43,12.10
2016,07,24,05,44,12.10
2016,07,24,05,45,12.10
2016,07,24,05,46,12.10
2016,07,24,05,47,12.10
2016,07,24,05,48,12.10
2016,07,24,05,49,12.10
2016,07,24,05,50,12.10
2016,07,24,05,51,12.10
2016,07,24,05,52,12.10
2016,07,24,05,53,12.10
2016,07,24,05,54,12.10
2016,07,24,05,55,12.10
2016,07,24,05,56,12.10
2016,07,24,05,57,12.10
2016,07,24,05,58,12.10
2016,07,24,05,59,12.10
2016,07,24,06,00,12.20
2016,07,24,06,01,12.20
2016,07,24,06,02,12.20
2016,07,24,06,03,12.20
2016,07,24,06,04,12.20
2016,07,24,06,05,12.20
2016,07,24,06,06,12.20
2016,07,24,06,07,12.20
2016,07,24,06,08,12.20
2016,07,24,06,09,12.20
2016,07,24,06,10,12.20
2016,07,24,06,11,12.30
2016,07,24,06,12,12.30
2016,07,24,06,13,12.30
2016,07,24,06,14,12.30
2016,07,24,06,15,12.40
2016,07,24,06,16,12.40
2016,07,24,06,17,12.40
2016,07,24,06,18,12.50
2016,07,24,06,19,12.50
2016,07,24,06,20,12.60
2016,07,24,06,21,12.60
2016,07,24,06,22,12.70
2016,07,24,06,23,12.70
2016,07,24,06,24,12.70
2016,07,24,06,25,12.70
2016,07,24,06,26,12.80
2016,07,24,06,27,12.80
2016,07,24,06,28,12.80
2016,07,24,06,29,12.80
2016,07,24,06,30,12.80
2016,07,24,06,31,12.90
2016,07,24,06,32,12.90
2016,07,24,06,33,12.90
2016,07,24,06,34,12.90
2016,07,24,06,35,13.00
2016,07,24,06,36,13.00
2016,07,24,06,37,13.00
2016,07,24,06,38,13.00
2016,07,24,06,39,13.00
2016,07,24,06,40,13.00
2016,07,24,06,41,13.10
2016,07,24,06,42,13.10
2016,07,24,06,43,13.20
2016,07,24,06,44,13.20
2016,07,24,06,45,13.20
2016,07,24,06,46,13.30
2016,07,24,06,47,13.30
2016,07,24,06,48,13.30
2016,07,24,06,49,13.30
2016,07,24,06,50,13.40
2016,07,24,06,51,13.40
2016,07,24,06,52,13.40
2016,07,24,06,53,13.40
2016,07,24,06,54,13.40
2016,07,24,06,55,13.40
2016,07,24,06,56,13.40
2016,07,24,06,57,13.40
2016,07,24,06,58,13.50
2016,07,24,06,59,13.50
2016,07,24,07,00,13.50
2016,07,24,07,01,13.60
2016,07,24,07,02,13.60
2016,07,24,07,03,13.70
2016,07,24,07,04,13.70
2016,07,24,07,05,13.80
2016,07,24,07,06,13.80
2016,07,24,07,07,13.90
2016,07,24,07,08,14.00
2016,07,24,07,09,14.10
2016,07,24,07,10,14.10
2016,07,24,07,11,14.20
2016,07,24,07,12,14.30
2016,07,24,07,13,14.40
2016,07,24,07,14,14.40
2016,07,24,07,15,14.50
2016,07,24,07,16,14.60
2016,07,24,07,17,14.60
2016,07,24,07,18,14.70
2016,07,24,07,19,14.80
2016,07,24,07,20,14.80
2016,07,24,07,21,14.80
2016,07,24,07,22,14.90
2016,07,24,07,23,15.00
2016,07,24,07,24,15.00
2016,07,24,07,25,15.10
2016,07,24,07,26,15.20
2016,07,24,07,27,15.30
2016,07,24,07,28,15.40
2016,07,24,07,29,15.50
2016,07,24,07,30,15.60
2016,07,24,07,31,15.70
2016,07,24,07,32,15.80
2016,07,24,07,33,15.90
2016,07,24,07,34,16.00
2016,07,24,07,35,16.20
2016,07,24,07,36,16.30
2016,07,24,07,37,16.40
2016,07,24,07,38,16.50
2016,07,24,07,39,16.60
2016,07,24,07,40,16.70
2016,07,24,07,41,16.80
2016,07,24,07,42,16.90
2016,07,24,07,43,17.00
2016,07,24,07,44,17.00
2016,07,24,07,45,17.10
2016,07,24,07,46,17.20
2016,07,24,07,47,17.20
2016,07,24,07,48,17.20
2016,07,24,07,49,17.20
2016,07,24,07,50,17.30
2016,07,24,07,51,17.30
2016,07,24,07,52,17.40
2016,07,24,07,53,17.40
2016,07,24,07,54,17.40
2016,07,24,07,55,17.40
2016,07,24,07,56,17.50
2016,07,24,07,57,17.50
2016,07,24,07,58,17.60
2016,07,24,07,59,17.60
2016,07,24,08,00,17.60
2016,07,24,08,01,17.60
2016,07,24,08,02,17.60
2016,07,24,08,03,17.70
2016,07,24,08,04,17.70
2016,07,24,08,05,17.80
2016,07,24,08,06,17.80
2016,07,24,08,07,17.80
2016,07,24,08,08,17.90
2016,07,24,08,09,18.00
2016,07,24,08,10,18.10
2016,07,24,08,11,18.20
2016,07,24,08,12,18.20
2016,07,24,08,13,18.30
2016,07,24,08,14,18.40
2016,07,24,08,15,18.40
2016,07,24,08,16,18.50
2016,07,24,08,17,18.50
2016,07,24,08,18,18.60
2016,07,24,08,19,18.60
2016,07,24,08,20,18.70
2016,07,24,08,21,18.70
2016,07,24,08,22,18.70
2016,07,24,08,23,18.70
2016,07,24,08,24,18.70
2016,07,24,08,25,18.80
2016,07,24,08,26,18.90
2016,07,24,08,27,18.90
2016,07,24,08,28,19.00
2016,07,24,08,29,19.00
2016,07,24,08,30,19.10
2016,07,24,08,31,19.10
2016,07,24,08,32,19.10
2016,07,24,08,33,19.10
2016,07,24,08,34,19.10
2016,07,24,08,35,19.20
2016,07,24,08,36,19.20
2016,07,24,08,37,19.30
2016,07,24,08,38,19.30
2016,07,24,08,39,19.30
2016,07,24,08,40,19.40
2016,07,24,08,41,19.40
2016,07,24,08,42,19.50
2016,07,24,08,43,19.60
2016,07,24,08,44,19.60
2016,07,24,08,45,19.70
2016,07,24,08,46,19.70
2016,07,24,08,47,19.80
2016,07,24,08,48,19.80
2016,07,24,08,49,19.80
2016,07,24,08,50,19.80
2016,07,24,08,51,19.90
2016,07,24,08,52,19.90
2016,07,24,08,53,19.90
2016,07,24,08,54,19.90
2016,07,24,08,55,19.90
2016,07,24,08,56,19.90
2016,07,24,08,57,19.90
2016,07,24,08,58,19.90
2016,07,24,08,59,20.00
2016,07,24,09,00,20.00
2016,07,24,09,01,20.10
2016,07,24,09,02,20.10
2016,07,24,09,03,20.10
2016,07,24,09,04,20.20
2016,07,24,09,05,20.20
2016,07,24,09,06,20.20
2016,07,24,09,07,20.30
2016,07,24,09,08,20.30
2016,07,24,09,09,20.40
2016,07,24,09,10,20.40
2016,07,24,09,11,20.40
2016,07,24,09,12,20.40
2016,07,24,09,13,20.40
2016,07,24,09,14,20.40
2016,07,24,09,15,20.40
2016,07,24,09,16,20.30
2016,07,24,09,17,20.30
2016,07,24,09,18,20.30
2016,07,24,09,19,20.30
2016,07,24,09,20,20.30
2016,07,24,09,21,20.30
2016,07,24,09,22,20.30
2016,07,24,09,23,20.30
2016,07,24,09,24,20.40
2016,07,24,09,25,20.40
2016,07,24,09,26,20.40
2016,07,24,09,27,20.40
2016,07,24,09,28,20.50
2016,07,24,09,29,20.50
2016,07,24,09,30,20.50
2016,07,24,09,31,20.50
2016,07,24,09,32,20.60
2016,07,24,09,33,20.60
2016,07,24,09,34,20.60
2016,07,24,09,35,20.70
2016,07,24,09,36,20.70
2016,07,24,09,37,20.70
2016,07,24,09,38,20.80
2016,07,24,09,39,20.80
2016,07,24,09,40,20.90
2016,07,24,09,41,20.90
2016,07,24,09,42,20.90
2016,07,24,09,43,20.90
2016,07,24,09,44,20.90
2016,07,24,09,45,20.90
2016,07,24,09,46,20.90
2016,07,24,09,47,20.90
2016,07,24,09,48,20.90
2016,07,24,09,49,20.90
2016,07,24,09,50,20.90
2016,07,24,09,51,20.90
2016,07,24,09,52,20.90
2016,07,24,09,53,20.90
2016,07,24,09,54,20.90
2016,07,24,09,55,21.00
2016,07,24,09,56,21.00
2016,07,24,09,57,21.00
2016,07,24,09,58,21.00
2016,07,24,09,59,21.00
2016,07,24,10,00,21.10
2016,07,24,10,01,21.10
2016,07,24,10,02,21.10
2016,07,24,10,03,21.20
2016,07,24,10,04,21.30
2016,07,24,10,05,21.30
2016,07,24,10,06,21.30
2016,07,24,10,07,21.30
2016,07,24,10,08,21.30
2016,07,24,10,09,21.30
2016,07,24,10,10,21.30
2016,07,24,10,11,21.30
2016,07,24,10,12,21.30
2016,07,24,10,13,21.30
2016,07,24,10,14,21.40
2016,07,24,10,15,21.50
2016,07,24,10,16,21.60
2016,07,24,10,17,21.70
2016,07,24,10,18,21.70
2016,07,24,10,19,21.80
2016,07,24,10,20,21.80
2016,07,24,10,21,21.80
2016,07,24,10,22,21.80
2016,07,24,10,23,21.70
2016,07,24,10,24,21.70
2016,07,24,10,25,21.70
2016,07,24,10,26,21.70
2016,07,24,10,27,21.70
2016,07,24,10,28,21.70
2016,07,24,10,29,21.70
2016,07,24,10,30,21.60
2016,07,24,10,31,21.50
2016,07,24,10,32,21.50
2016,07,24,10,33,21.40
2016,07,24,10,34,21.40
2016,07,24,10,35,21.40
2016,07,24,10,36,21.40
2016,07,24,10,37,21.30
2016,07,24,10,38,21.20
2016,07,24,10,39,21.20
2016,07,24,10,40,21.10
2016,07,24,10,41,21.10
2016,07,24,10,42,21.10
2016,07,24,10,43,21.10
2016,07,24,10,44,21.10
2016,07,24,10,45,21.10
2016,07,24,10,46,21.10
2016,07,24,10,47,21.10
2016,07,24,10,48,21.20
2016,07,24,10,49,21.10
2016,07,24,10,50,21.20
2016,07,24,10,51,21.20
2016,07,24,10,52,21.20
2016,07,24,10,53,21.20
2016,07,24,10,54,21.20
2016,07,24,10,55,21.30
2016,07,24,10,56,21.40
2016,07,24,10,57,21.50
2016,07,24,10,58,21.60
2016,07,24,10,59,21.70
2016,07,24,11,00,21.80
2016,07,24,11,01,21.90
2016,07,24,11,02,21.90
2016,07,24,11,03,22.00
2016,07,24,11,04,22.00
2016,07,24,11,05,22.00
2016,07,24,11,06,22.00
2016,07,24,11,07,21.90
2016,07,24,11,08,21.80
2016,07,24,11,09,21.70
2016,07,24,11,10,21.60
2016,07,24,11,11,21.50
2016,07,24,11,12,21.50
2016,07,24,11,13,21.50
2016,07,24,11,14,21.40
2016,07,24,11,15,21.40
2016,07,24,11,16,21.30
2016,07,24,11,17,21.30
2016,07,24,11,18,21.40
2016,07,24,11,19,21.40
2016,07,24,11,20,21.50
2016,07,24,11,21,21.50
2016,07,24,11,22,21.50
2016,07,24,11,23,21.50
2016,07,24,11,24,21.60
2016,07,24,11,25,21.70
2016,07,24,11,26,21.70
2016,07,24,11,27,21.70
2016,07,24,11,28,21.80
2016,07,24,11,29,21.80
2016,07,24,11,30,21.90
2016,07,24,11,31,21.90
2016,07,24,11,32,21.90
2016,07,24,11,33,21.90
2016,07,24,11,34,21.90
2016,07,24,11,35,21.90
2016,07,24,11,36,21.90
2016,07,24,11,37,21.90
2016,07,24,11,38,21.80
2016,07,24,11,39,21.80
2016,07,24,11,40,21.90
2016,07,24,11,41,21.90
2016,07,24,11,42,21.90
2016,07,24,11,43,22.00
2016,07,24,11,44,21.90
2016,07,24,11,45,21.90
2016,07,24,11,46,21.80
2016,07,24,11,47,21.80
2016,07,24,11,48,21.80
2016,07,24,11,49,21.90
2016,07,24,11,50,21.90
2016,07,24,11,51,22.00
2016,07,24,11,52,22.10
2016,07,24,11,53,22.30
2016,07,24,11,54,22.30
2016,07,24,11,55,22.30
2016,07,24,11,56,22.30
2016,07,24,11,57,22.30
2016,07,24,11,58,22.30
2016,07,24,11,59,22.30
2016,07,24,12,00,22.30
2016,07,24,12,01,22.50
2016,07,24,12,02,22.60
2016,07,24,12,03,22.70
2016,07,24,12,04,22.80
2016,07,24,12,05,22.80
2016,07,24,12,06,22.90
2016,07,24,12,07,22.90
2016,07,24,12,08,23.00
2016,07,24,12,09,23.00
2016,07,24,12,10,23.00
2016,07,24,12,11,23.10
2016,07,24,12,12,23.10
2016,07,24,12,13,23.20
2016,07,24,12,14,23.20
2016,07,24,12,15,23.10
2016,07,24,12,16,23.00
2016,07,24,12,17,23.00
2016,07,24,12,18,22.90
2016,07,24,12,19,22.90
2016,07,24,12,20,22.90
2016,07,24,12,21,22.90
2016,07,24,12,22,23.00
2016,07,24,12,23,23.00
2016,07,24,12,24,22.90
2016,07,24,12,25,22.90
2016,07,24,12,26,22.90
2016,07,24,12,27,22.90
2016,07,24,12,28,23.00
2016,07,24,12,29,23.00
2016,07,24,12,30,23.10
2016,07,24,12,31,23.20
2016,07,24,12,32,23.30
2016,07,24,12,33,23.30
2016,07,24,12,34,23.30
2016,07,24,12,35,23.30
2016,07,24,12,36,23.40
2016,07,24,12,37,23.50
2016,07,24,12,38,23.50
2016,07,24,12,39,23.40
2016,07,24,12,40,23.40
2016,07,24,12,41,23.40
2016,07,24,12,42,23.40
2016,07,24,12,43,23.50
2016,07,24,12,44,23.60
2016,07,24,12,45,23.60
2016,07,24,12,46,23.60
2016,07,24,12,47,23.70
2016,07,24,12,48,23.70
2016,07,24,12,49,23.70
2016,07,24,12,50,23.70
2016,07,24,12,51,23.70
2016,07,24,12,52,23.70
2016,07,24,12,53,23.70
2016,07,24,12,54,23.70
2016,07,24,12,55,23.70
2016,07,24,12,56,23.60
2016,07,24,12,57,23.60
2016,07,24,12,58,23.50
2016,07,24,12,59,23.40
2016,07,24,13,00,23.40
2016,07,24,13,01,23.50
2016,07,24,13,02,23.60
2016,07,24,13,03,23.70
2016,07,24,13,04,23.70
2016,07,24,13,05,23.80
2016,07,24,13,06,23.80
2016,07,24,13,07,23.90
2016,07,24,13,08,24.00
2016,07,24,13,09,24.00
2016,07,24,13,10,24.00
2016,07,24,13,11,24.00
2016,07,24,13,12,23.90
2016,07,24,13,13,23.90
2016,07,24,13,14,23.80
2016,07,24,13,15,23.80
2016,07,24,13,16,23.80
2016,07,24,13,17,23.70
2016,07,24,13,18,23.70
2016,07,24,13,19,23.70
2016,07,24,13,20,23.70
2016,07,24,13,21,23.80
2016,07,24,13,22,23.80
2016,07,24,13,23,23.90
2016,07,24,13,24,24.00
2016,07,24,13,25,24.10
2016,07,24,13,26,24.10
2016,07,24,13,27,24.10
2016,07,24,13,28,24.10
2016,07,24,13,29,24.10
2016,07,24,13,30,24.10
2016,07,24,13,31,24.10
2016,07,24,13,32,24.10
2016,07,24,13,33,24.10
2016,07,24,13,34,24.10
2016,07,24,13,35,24.10
2016,07,24,13,36,24.20
2016,07,24,13,37,24.20
2016,07,24,13,38,24.20
2016,07,24,13,39,24.30
2016,07,24,13,40,24.30
2016,07,24,13,41,24.30
2016,07,24,13,42,24.30
2016,07,24,13,43,24.40
2016,07,24,13,44,24.50
2016,07,24,13,45,24.60
2016,07,24,13,46,24.70
2016,07,24,13,47,24.70
2016,07,24,13,48,24.60
2016,07,24,13,49,24.70
2016,07,24,13,50,24.70
2016,07,24,13,51,24.60
2016,07,24,13,52,24.60
2016,07,24,13,53,24.50
2016,07,24,13,54,24.40
2016,07,24,13,55,24.30
2016,07,24,13,56,24.30
2016,07,24,13,57,24.20
2016,07,24,13,58,24.20
2016,07,24,13,59,24.20
2016,07,24,14,00,24.20
2016,07,24,14,01,24.20
2016,07,24,14,02,24.20
2016,07,24,14,03,24.20
2016,07,24,14,04,24.30
2016,07,24,14,05,24.30
2016,07,24,14,06,24.30
2016,07,24,14,07,24.30
2016,07,24,14,08,24.30
2016,07,24,14,09,24.30
2016,07,24,14,10,24.40
2016,07,24,14,11,24.40
2016,07,24,14,12,24.50
2016,07,24,14,13,24.50
2016,07,24,14,14,24.50
2016,07,24,14,15,24.40
2016,07,24,14,16,24.30
2016,07,24,14,17,24.30
2016,07,24,14,18,24.40
2016,07,24,14,19,24.40
2016,07,24,14,20,24.40
2016,07,24,14,21,24.40
2016,07,24,14,22,24.50
2016,07,24,14,23,24.50
2016,07,24,14,24,24.50
2016,07,24,14,25,24.50
2016,07,24,14,26,24.50
2016,07,24,14,27,24.40
2016,07,24,14,28,24.50
2016,07,24,14,29,24.50
2016,07,24,14,30,24.60
2016,07,24,14,31,24.60
2016,07,24,14,32,24.60
2016,07,24,14,33,24.60
2016,07,24,14,34,24.70
2016,07,24,14,35,24.70
2016,07,24,14,36,24.70
2016,07,24,14,37,24.80
2016,07,24,14,38,24.80
2016,07,24,14,39,24.80
2016,07,24,14,40,24.80
2016,07,24,14,41,24.80
2016,07,24,14,42,24.80
2016,07,24,14,43,24.80
2016,07,24,14,44,24.80
2016,07,24,14,45,24.90
2016,07,24,14,46,24.90
2016,07,24,14,47,24.90
2016,07,24,14,48,25.00
2016,07,24,14,49,25.10
2016,07,24,14,50,25.00
2016,07,24,14,51,25.00
2016,07,24,14,52,25.00
2016,07,24,14,53,25.00
2016,07,24,14,54,25.00
2016,07,24,14,55,25.10
2016,07,24,14,56,25.10
2016,07,24,14,57,25.10
2016,07,24,14,58,25.10
2016,07,24,14,59,25.20
2016,07,24,15,00,25.30
2016,07,24,15,01,25.30
2016,07,24,15,02,25.30
2016,07,24,15,03,25.30
2016,07,24,15,04,25.30
2016,07,24,15,05,25.30
2016,07,24,15,06,25.30
2016,07,24,15,07,25.30
2016,07,24,15,08,25.40
2016,07,24,15,09,25.40
2016,07,24,15,10,25.50
2016,07,24,15,11,25.50
2016,07,24,15,12,25.50
2016,07,24,15,13,25.50
2016,07,24,15,14,25.40
2016,07,24,15,15,25.40
2016,07,24,15,16,25.40
2016,07,24,15,17,25.40
2016,07,24,15,18,25.30
2016,07,24,15,19,25.30
2016,07,24,15,20,25.20
2016,07,24,15,21,25.10
2016,07,24,15,22,25.10
2016,07,24,15,23,25.00
2016,07,24,15,24,24.90
2016,07,24,15,25,24.90
2016,07,24,15,26,24.90
2016,07,24,15,27,25.00
2016,07,24,15,28,25.10
2016,07,24,15,29,25.20
2016,07,24,15,30,25.30
2016,07,24,15,31,25.30
2016,07,24,15,32,25.40
2016,07,24,15,33,25.40
2016,07,24,15,34,25.50
2016,07,24,15,35,25.60
2016,07,24,15,36,25.70
2016,07,24,15,37,25.70
2016,07,24,15,38,25.70
2016,07,24,15,39,25.80
2016,07,24,15,40,25.80
2016,07,24,15,41,25.80
2016,07,24,15,42,25.90
2016,07,24,15,43,26.00
2016,07,24,15,44,26.00
2016,07,24,15,45,26.00
2016,07,24,15,46,26.10
2016,07,24,15,47,26.10
2016,07,24,15,48,26.20
2016,07,24,15,49,26.20
2016,07,24,15,50,26.20
2016,07,24,15,51,26.10
2016,07,24,15,52,26.00
2016,07,24,15,53,26.00
2016,07,24,15,54,26.10
2016,07,24,15,55,26.10
2016,07,24,15,56,26.10
2016,07,24,15,57,26.10
2016,07,24,15,58,26.10
2016,07,24,15,59,26.10
2016,07,24,16,00,26.10
2016,07,24,16,01,26.00
2016,07,24,16,02,26.00
2016,07,24,16,03,26.00
2016,07,24,16,04,25.90
2016,07,24,16,05,25.90
2016,07,24,16,06,25.90
2016,07,24,16,07,26.00
2016,07,24,16,08,26.00
2016,07,24,16,09,26.10
2016,07,24,16,10,26.10
2016,07,24,16,11,26.10
2016,07,24,16,12,26.10
2016,07,24,16,13,26.20
2016,07,24,16,14,26.20
2016,07,24,16,15,26.20
2016,07,24,16,16,26.30
2016,07,24,16,17,26.40
2016,07,24,16,18,26.40
2016,07,24,16,19,26.40
2016,07,24,16,20,26.30
2016,07,24,16,21,26.30
2016,07,24,16,22,26.30
2016,07,24,16,23,26.40
2016,07,24,16,24,26.40
2016,07,24,16,25,26.40
2016,07,24,16,26,26.50
2016,07,24,16,27,26.50
2016,07,24,16,28,26.60
2016,07,24,16,29,26.60
2016,07,24,16,30,26.60
2016,07,24,16,31,26.60
2016,07,24,16,32,26.70
2016,07,24,16,33,26.60
2016,07,24,16,34,26.60
2016,07,24,16,35,26.60
2016,07,24,16,36,26.60
2016,07,24,16,37,26.70
2016,07,24,16,38,26.70
2016,07,24,16,39,26.80
2016,07,24,16,40,26.80
2016,07,24,16,41,26.80
2016,07,24,16,42,26.80
2016,07,24,16,43,26.80
2016,07,24,16,44,26.70
2016,07,24,16,45,26.70
2016,07,24,16,46,26.70
2016,07,24,16,47,26.70
2016,07,24,16,48,26.60
2016,07,24,16,49,26.60
2016,07,24,16,50,26.70
2016,07,24,16,51,26.70
2016,07,24,16,52,26.80
2016,07,24,16,53,26.90
2016,07,24,16,54,26.90
2016,07,24,16,55,27.00
2016,07,24,16,56,27.10
2016,07,24,16,57,27.10
2016,07,24,16,58,27.20
2016,07,24,16,59,27.30
2016,07,24,17,00,27.30
2016,07,24,17,01,27.40
2016,07,24,17,02,27.30
2016,07,24,17,03,27.30
2016,07,24,17,04,27.30
2016,07,24,17,05,27.20
2016,07,24,17,06,27.10
2016,07,24,17,07,27.00
2016,07,24,17,08,26.90
2016,07,24,17,09,26.90
2016,07,24,17,10,26.80
2016,07,24,17,11,26.70
2016,07,24,17,12,26.70
2016,07,24,17,13,26.60
2016,07,24,17,14,26.60
2016,07,24,17,15,26.60
2016,07,24,17,16,26.60
2016,07,24,17,17,26.70
2016,07,24,17,18,26.70
2016,07,24,17,19,26.60